Location: Montr�al
(45.5000°N, 73.5830°W)
Time: 16:31:07
(UTC-04:00)

ISS - All Passes

Search period start: 30 March 2017 00:00
Search period end: 09 April 2017 00:00
Orbit: 399 x 409 km, 51.6° (Epoch: 31 March)

Date Brightness Start Highest point End Pass type
(mag) Time Alt. Az. Time Alt. Az. Time Alt. Az.
30 Mar - 01:07:51 10° WNW 01:11:06 59° NNE 01:14:22 10° ESE night (unlit)
30 Mar - 02:44:40 10° W 02:47:22 24° SW 02:50:05 10° SSE night (unlit)
30 Mar - 19:25:24 10° SSW 19:28:18 30° SE 19:31:13 10° ENE daylight
30 Mar - 21:01:28 10° W 21:04:39 49° NNW 21:07:52 10° NE visible
30 Mar - 22:38:46 10° WNW 22:41:37 26° N 22:44:29 10° ENE visible
31 Mar - 00:15:29 10° NW 00:18:37 41° NNE 00:21:46 10° E night (unlit)
31 Mar - 01:51:59 10° WNW 01:55:07 41° SW 01:58:14 10° SE night (unlit)
31 Mar - 18:33:49 10° S 18:36:04 17° SE 18:38:19 10° E daylight
31 Mar - 20:08:56 10° WSW 20:12:12 75° NNW 20:15:28 10° ENE visible
31 Mar - 21:46:06 10° WNW 21:49:01 28° N 21:51:56 10° NE visible
31 Mar - 23:23:04 10° NW 23:26:04 32° NNE 23:29:05 10° ENE visible
01 Apr - 00:59:29 10° WNW 01:02:46 73° SSW 01:06:02 10° SE night (unlit)
01 Apr - 02:37:40 10° WSW 02:38:42 11° SW 02:39:45 10° SSW night (unlit)
01 Apr - 19:16:33 10° SW 19:19:47 65° SSE 19:23:02 10° ENE daylight
01 Apr - 20:53:25 10° W 20:56:26 33° NNW 20:59:28 10° NE visible
01 Apr - 22:30:35 10° NW 22:33:29 28° N 22:36:22 10° ENE visible
02 Apr - 00:07:03 10° WNW 00:10:20 69° NNE 00:13:36 10° ESE night (unlit)
02 Apr - 01:44:03 10° W 01:46:31 20° SW 01:48:59 10° S night (unlit)
02 Apr - 18:24:25 10° SSW 18:27:26 36° SE 18:30:28 10° ENE daylight
02 Apr - 20:00:44 10° W 20:03:52 43° NNW 20:07:02 10° NE visible
02 Apr - 21:38:01 10° WNW 21:40:51 26° N 21:43:42 10° ENE visible
02 Apr - 23:14:38 10° NW 23:17:49 46° NNE 23:21:01 10° E visible
03 Apr - 00:51:13 10° WNW 00:54:15 34° SW 00:57:15 10° SSE night (unlit)
03 Apr - 17:32:38 10° S 17:35:08 21° SE 17:37:40 10° E daylight
03 Apr - 19:08:06 10° WSW 19:11:20 64° NNW 19:14:36 10° ENE daylight
03 Apr - 20:45:21 10° WNW 20:48:13 27° N 20:51:06 10° NE visible
03 Apr - 22:22:12 10° NW 22:25:15 34° NNE 22:28:18 10° E visible
03 Apr - 23:58:38 10° WNW 00:01:53 60° SSW 00:05:07 10° SE night (unlit)
04 Apr - 16:41:38 10° SSE 16:42:54 12° SE 16:44:12 10° ESE daylight
04 Apr - 18:15:38 10° SW 18:18:53 78° SSE 18:22:09 10° ENE daylight
04 Apr - 19:52:37 10° WNW 19:55:35 31° NNW 19:58:34 10° NE visible
04 Apr - 21:29:43 10° NW 21:32:38 29° N 21:35:34 10° ENE visible
04 Apr - 23:06:08 10° WNW 23:09:26 80° NNE 23:12:43 10° ESE visible
05 Apr - 00:43:23 10° W 00:45:32 16° SW 00:47:41 10° S night (unlit)
05 Apr - 17:23:21 10° SW 17:26:28 44° SE 17:29:35 10° ENE daylight
05 Apr - 18:59:53 10° W 19:02:58 39° NNW 19:06:05 10° NE daylight
05 Apr - 20:37:08 10° WNW 20:39:59 26° N 20:42:50 10° ENE visible
05 Apr - 22:13:42 10° NW 22:16:55 52° NNE 22:20:08 10° E visible
05 Apr - 23:50:23 10° WNW 23:53:14 28° SW 23:56:07 10° SSE night (unlit)
06 Apr - 16:31:23 10° SSW 16:34:06 25° SE 16:36:51 10° E daylight
06 Apr - 18:07:11 10° WSW 18:10:24 56° NNW 18:13:37 10° ENE daylight
06 Apr - 19:44:28 10° WNW 19:47:18 27° N 19:50:09 10° ENE daylight
06 Apr - 21:21:14 10° NW 21:24:20 37° NNE 21:27:24 10° E visible
06 Apr - 22:57:41 10° WNW 23:00:52 50° SW 23:04:03 10° SE visible
07 Apr - 15:39:58 10° SSE 15:41:49 14° SE 15:43:40 10° E daylight
07 Apr - 17:14:37 10° WSW 17:17:51 88° NW 17:21:08 10° ENE daylight
07 Apr - 18:51:42 10° WNW 18:54:37 29° N 18:57:33 10° NE daylight
07 Apr - 20:28:44 10° NW 20:31:41 30° N 20:34:37 10° ENE visible
07 Apr - 22:05:08 10° WNW 22:08:25 87° SSW 22:11:42 10° ESE visible
07 Apr - 23:42:43 10° WSW 23:44:26 14° SW 23:46:09 10° SSW night (unlit)
08 Apr - 16:22:13 10° SW 16:25:23 53° SE 16:28:34 10° ENE daylight
08 Apr - 17:58:55 10° W 18:01:57 36° NNW 18:05:01 10° NE daylight
08 Apr - 19:36:08 10° WNW 19:38:59 27° N 19:41:51 10° ENE daylight
08 Apr - 21:12:38 10° WNW 21:15:52 59° NNE 21:19:07 10° ESE visible
08 Apr - 22:49:26 10° W 22:52:08 24° SW 22:54:49 10° SSE visible
